Location: Taunton
(51.0167°N, 3.1000°W)
Time: 16:03:43
(UTC+01:00)

ISS - Visible Passes

Search period start: 25 September 2022 00:00
Search period end: 05 October 2022 00:00
Orbit: 414 x 417 km, 51.6° (Epoch: 25 September)

Date Brightness Start Highest point End Pass type
(mag) Time Alt. Az. Time Alt. Az. Time Alt. Az.
25 Sep -3.7 19:31:09 10° W 19:34:31 82° N 19:37:54 10° E visible
25 Sep -3.8 21:07:57 10° W 21:11:13 81° WSW 21:11:13 81° WSW visible
26 Sep -3.8 20:19:17 10° W 20:22:40 84° N 20:24:22 27° E visible
26 Sep -1.2 21:56:05 10° W 21:57:15 19° W 21:57:15 19° W visible
27 Sep -3.7 19:30:36 10° W 19:33:59 78° N 19:37:21 10° E visible
27 Sep -3.2 21:07:23 10° W 21:10:24 52° SW 21:10:24 52° SW visible
28 Sep -3.7 20:18:40 10° WNW 20:22:02 71° SSW 20:23:35 29° ESE visible
28 Sep -0.8 21:55:48 10° W 21:56:27 13° WSW 21:56:27 13° WSW visible
29 Sep -3.7 19:29:58 10° W 19:33:20 86° SSW 19:36:43 10° ESE visible
29 Sep -2.3 21:06:51 10° W 21:09:39 29° SW 21:09:39 29° SW visible
30 Sep -2.9 20:18:01 10° W 20:21:13 41° SSW 20:22:53 23° SSE visible
01 Oct -3.3 19:29:15 10° W 19:32:33 57° SSW 19:35:52 10° ESE visible
01 Oct -1.3 21:06:44 10° WSW 21:08:45 15° SW 21:09:03 15° SW visible
02 Oct -1.7 20:17:32 10° W 20:20:12 22° SW 20:22:23 13° SSE visible
03 Oct -2.2 19:28:33 10° W 19:31:35 31° SSW 19:34:35 10° SSE visible
04 Oct -0.8 20:18:05 10° WSW 20:18:57 11° SW 20:19:49 10° SSW visible
